[Iaude] MPEC A139: 2024 AN3 [a=1.95,e=0.47,i=12.3,H=25.1]
    mpec at marsden.cfa.harvard.edu 
    mpec at marsden.cfa.harvard.edu
       
    Thu Jan 11 20:53:04 EST 2024
    
    
  
M.P.E.C. 2024-A139                             Issued 2024 January 12, 01:51 UT
     The Minor Planet Electronic Circulars contain information on unusual
         minor planets, routine data on comets and natural satellites,
         and occasional editorial announcements.  They are published
    on behalf of Division F of the International Astronomical Union by the
          Minor Planet Center, Smithsonian Astrophysical Observatory,
                          Cambridge, MA 02138, U.S.A.
			  
             Prepared using the Tamkin Foundation Computer Network
                              MPC at CFA.HARVARD.EDU
            URL https://www.minorplanetcenter.net/    ISSN 1523-6714
                                    2024 AN3                                    
Observations:
     K24A03N*KC2024 01 10.91486 08 11 52.73 +25 30 53.8          20.3 GXEA139L51
     K24A03N KC2024 01 10.91598 08 11 53.57 +25 31 07.4          19.7 GXEA139L51
     K24A03N KC2024 01 10.91702 08 11 54.35 +25 31 19.1          19.5 GXEA139L51
     K24A03N KC2024 01 10.94162 08 12 12.54 +25 36 03.9          19.6 GXEA139L51
     K24A03N KC2024 01 10.94387 08 12 14.20 +25 36 29.7          19.8 GXEA139L51
     K24A03N 1C2024 01 10.94418 08 12 16.73 +25 36 17.6          18.9 VXEA139033
     K24A03N 1C2024 01 10.94469 08 12 17.11 +25 36 23.5          19.6 VXEA139033
     K24A03N 1C2024 01 10.94520 08 12 17.49 +25 36 29.5          19.2 VXEA139033
     K24A03N 1C2024 01 10.94587 08 12 17.98 +25 36 37.2          19.4 VXEA139033
     K24A03N KC2024 01 10.94611 08 12 15.89 +25 36 55.4          19.7 GXEA139L51
     K24A03N IC2024 01 10.96992508 12 37.318+25 41 12.91               VEA139J95
     K24A03N KC2024 01 10.97617508 12 41.950+25 42 26.03         19.7 GVEA139J95
     K24A03N KB2024 01 11.00345508 13 01.542+25 47 45.17         19.7 GXEA139B72
     K24A03N KB2024 01 11.01106108 13 07.238+25 49 13.45         19.5 GXEA139B72
     K24A03N KB2024 01 11.01888208 13 13.183+25 50 44.36         19.5 GXEA139B72
     K24A03N hC2024 01 11.03919008 13 27.61 +25 54 49.0          20.0 GVEA139L01
     K24A03N hC2024 01 11.04067208 13 28.72 +25 55 06.7          20.4 GVEA139L01
     K24A03N IC2024 01 11.04215008 13 29.84 +25 55 23.4          20.0 GVEA139L01
     K24A03N KC2024 01 11.13395708 14 52.23 +26 12 59.7          20.2 GXEA139858
     K24A03N KC2024 01 11.14077908 14 57.53 +26 14 21.0          19.9 GXEA139858
     K24A03N KC2024 01 11.14791808 15 03.16 +26 15 46.1          20.1 GXEA139858
     K24A03N 1C2024 01 11.16784 08 15 06.66 +26 19 13.9          20.2 VXEA139033
     K24A03N 1C2024 01 11.16835 08 15 07.09 +26 19 19.8          20.3 VXEA139033
     K24A03N 1C2024 01 11.16886 08 15 07.46 +26 19 25.7          20.3 VXEA139033
     K24A03N KB2024 01 11.24374 08 16 15.89 +26 34 38.2          19.9 GXEA139H36
     K24A03N KB2024 01 11.24841 08 16 19.44 +26 35 33.7          19.7 GXEA139H36
     K24A03N KB2024 01 11.25292 08 16 22.89 +26 36 25.9          20.1 GXEA139H36
     K24A03N KB2024 01 11.25742 08 16 26.42 +26 37 19.2          20.0 GXEA139H36
     K24A03N KC2024 01 11.33264408 17 23.05 +26 51 54.9          20.2 GVEA139H21
     K24A03N KC2024 01 11.33422608 17 24.28 +26 52 13.6          20.2 GVEA139H21
     K24A03N KC2024 01 11.33580808 17 25.48 +26 52 32.0          20.5 GVEA139H21
     K24A03N KC2024 01 11.33738908 17 26.72 +26 52 50.1          20.3 GVEA139H21
     K24A03N KB2024 01 11.89709808 25 26.71 +28 42 10.2          20.0 GXEA139958
     K24A03N KB2024 01 11.90179708 25 30.62 +28 43 05.4          19.5 GXEA139958
     K24A03N KB2024 01 11.90649108 25 34.53 +28 44 02.3          20.0 GXEA139958
     K24A03N KC2024 01 11.92147708 25 45.98 +28 47 03.6                VEA139587
     K24A03N KC2024 01 11.92333608 25 47.54 +28 47 26.0                VEA139587
     K24A03N KC2024 01 11.92578108 25 49.56 +28 47 55.0          19.9 GVEA139587
Observer details:
033 Karl Schwarzschild Observatory, Tautenburg.  Observers S. Melnikov, C.
    Hogner, F. Ludwig, M. Hartmann, B. Stecklum.  Measurer B. Stecklum.
    1.34-m f/3 Schmidt + CCD.
587 Sormano.  Observers F. Manca, A. Testa.  Measurer F. Manca.  0.5-m f/6.8
    reflector + CCD.
858 Tebbutt Observatory, Edgewood.  Observer F. B. Zoltowski.  0.51-m f/8.1
    Schmidt-Cassegrain + CCD.
958 Observatoire de Dax.  Observer P. Dupouy.  0.50-m f/4.5 Reflector + CMO.
B72 Soerth.  Observer B. Koch.  0.36-m f/7.6 reflector + CMO.
H21 Astronomical Research Observatory, Westfield.  Observer R. Holmes.
    Measurers T. Linder, R. Holmes, L. Horn.  0.76-m f/3.0 astrograph + CCD.
H36 Sandlot Observatory, Scranton.  Observer G. Hug.  0.56-m f/4.8 reflector +
    CMO.
J95 Great Shefford.  Observer P. Birtwhistle.  0.41-m f/6.3 Schmidt-Cassegrain
    + CCD.
L01 Visnjan Observatory, Tican.  Observers K. Korlevic, L. Poropat.  Measurer
    K. Korlevic.  1.0-m f/2.9 reflector + CCD.
L51 MARGO, Nauchnyi.  Observer G. Borisov.  0.50-m f/1.9 reflector + CCD.
Orbital elements:
2024 AN3                                                 Earth MOID = 0.0607 AU
Epoch 2023 Sept. 13.0 TT = JDT 2460200.5                Veres                   
M 309.39179              (2000.0)            P               Q                  
n   0.36238327     Peri.   24.01496     -0.67151133     -0.71302553             
a   1.9484561      Node   108.85662     +0.64067912     -0.69542239             
e   0.4739403      Incl.   12.30395     +0.37229397     -0.08934370             
P   2.72           H   25.15          G   0.15           U   8                  
Residuals in seconds of arc
240110 L51  0.3+  0.5-    240111 B72  0.3-  0.1-    240111 H36  0.0   0.1-
240110 L51  0.4+  0.2+    240111 B72  0.6+  0.3+    240111 H36  1.1+  0.4+
240110 L51  0.6+  0.2-    240111 L01  0.3-  0.2-    240111 H21  0.0   0.3-
240110 L51  0.4+  0.3+    240111 L01  0.3-  0.4+    240111 H21  0.1+  0.1+
240110 L51  0.3+  0.2+    240111 L01  0.2-  0.1+    240111 H21  0.2-  0.1+
240110 033  0.3+  0.0     240111 858  0.4+  0.2-    240111 H21  0.1+  0.1-
240110 033  0.3+  0.1-    240111 858  0.3-  0.0     240111 958  0.5+  1.1+
240110 033  0.2+  0.0     240111 858  0.3+  0.2+    240111 958  0.1-  0.3-
240110 033  0.1+  0.1-    240111 033  0.0   0.4-    240111 958  0.6-  0.0
240110 L51  0.7+  0.0     240111 033  0.4+  0.3-    240111 587  0.2-  0.1+
240110 J95  0.7+  0.1-    240111 033  0.0   0.2-    240111 587  0.1-  0.2+
240110 J95  0.2-  0.2+    240111 H36  0.4+  0.2+    240111 587  0.4-  0.1-
240111 B72  0.1-  0.3-    240111 H36  0.0   0.7+
Ephemeris:
2024 AN3                 a,e,i = 1.95, 0.47, 12                  q = 1.0250
Date    TT    R. A. (2000) Decl.     Delta      r    Elong.  Phase     V
2023 12 13    06 05 19.8 -09 08 14   0.2116  1.1657   145.8    28.4    23.4
...
2023 12 28    06 36 19.4 -02 06 13   0.1237  1.0963   154.4    22.8    21.9
...
2024 01 05    07 15 01.5 +09 36 31   0.08633 1.0674   166.4    12.5    20.7
...
2024 01 11    08 12 57.7 +25 47 51   0.06803 1.0502   168.6    10.6    20.1
2024 01 12    08 26 49.9 +29 03 10   0.06630 1.0478   165.4    13.7    20.1
2024 01 13    08 42 14.9 +32 21 07   0.06503 1.0454   161.6    17.3    20.2
...
2024 01 19    10 46 47.6 +48 32 03   0.06748 1.0340   136.6    40.8    21.0
...
2024 01 27    13 29 01.0 +51 56 37   0.09093 1.0258   114.6    60.7    22.2
...
2024 02 11    15 16 19.0 +45 21 32   0.1535  1.0334   103.4    68.3    23.6
M. P. C. Staff               (C) Copyright 2024 MPC           M.P.E.C. 2024-A139
    
    
More information about the Iaude
mailing list